Location: Pilipovskiye Korichintsy
(49.1833°N, 27.4667°E)
Time: 23:37:19
(UTC+00:00)

Lacrosse 5 - Pass Details

Date: 31 October 2020
Orbit: 714 x 725 km, 57.0° (Epoch: 30 November)

Event Time Altitude Azimuth Distance (km) Brightness Sun altitude
Rises 18:11:57 0° 304° (NW) 3,121 6.1 -33.2°
Reaches altitude 10° 18:14:20 10° 303° (WNW) 2,199 5.1 -33.6°
Enters shadow 18:17:03 32° 298° (WNW) 1,213 3.4 -34.0°
